Orbital Elements at Epoch 2459200.5 (2020-Dec-17.0) TDB
Reference: JPL 20 (heliocentric ecliptic J2000)
Element | Value | Uncertainty (1-sigma) | Units |
e | .2636873975614498 | 5.5645e-08 | |
a | 2.324508513607396 | 1.2421e-08 | au |
q | 1.711564913044828 | 1.3209e-07 | au |
i | 6.560638441278527 | 5.6107e-06 | deg |
node | 124.2640421367468 | 2.8062e-05 | deg |
peri | 214.1467818265655 | 2.9104e-05 | deg |
M | 273.81625912168 | 9.2136e-06 | deg |
tp | 2459510.397433052589 (2021-Oct-22.89743305) | 3.5061e-05 | TDB |
period | 1294.479385113304 3.54 | 1.0375e-05 2.841e-08 | d yr |
n | .2781040811773837 | 2.229e-09 | deg/d |
Q | 2.937452114169965 | 1.5696e-08 | au |
|
| | Orbit Determination Parameters
Additional Information
|